Zurück zum Katalog

SL-14 R/B

AktivPO
NORAD 16263·ROCKET BODY·🇷🇺 Russia

Gestartet Nov 22, 1985 von Plesetsk Cosmodrome

Loading…

Nächste Überflüge (nächste 24 Stunden)

TLE

AktuellSource: Space-Track

Epoche: Sep 14, 2026, 13:26 UTC

1 16263U 85108B   26257.56021510  .00000349  00000-0  37391-4 0  9995
2 16263  82.5054 183.1287 0019663  20.2988 152.3988 14.85651623183962

Verfolge SL-14 R/B in Echtzeit mit AllMySat

Download on the App Store